Location: Madoum�
(4.9167°N, 11.4167°E)
Time: 00:09:02
(UTC+00:00)

Daily predictions for brighter satellites

Satellite Brightness Start Highest point End
(mag) Time Altitude Azimuth Time Altitude Azimuth Time Altitude Azimuth
Cosmos 2322 Rocket 4.2 02:34:55 22° NE 02:34:55 22° NE 02:36:58 10° NNE
Intelsat 5-1 Rocket 4.1 02:38:22 37° NE 02:38:22 37° NE 02:47:05 10° E
SL-16 R/B 4.3 02:43:38 17° NNE 02:43:38 17° NNE 02:44:50 10° NNE
NOSS 3-1 (A) 4.2 02:45:50 73° S 02:45:50 73° S 02:53:50 10° SSE
ARIANE 5 R/B 3.4 02:54:14 35° SSE 02:54:14 35° SSE 03:05:25 10° E
ARIANE 5 DEB (SYLDA) 4.0 02:58:04 55° WSW 03:00:55 77° S 03:06:35 10° E
Ariane H10-3 4.4 03:09:55 50° W 03:13:38 84° S 10:58:56 10° E
ARIANE 5 DEB (SYLDA) 3.3 03:19:46 68° ENE 03:19:46 68° ENE 03:23:13 10° E
Cosmos 1934 Rocket 3.8 03:15:51 10° N 03:21:53 70° W 03:28:02 10° S
Cosmos 1777 Rocket 4.1 03:18:19 19° N 03:22:07 74° ENE 03:27:17 10° SSE
Cosmos 2227 Rocket 3.7 03:27:00 21° SSW 03:27:00 21° SSW 03:28:54 10° S
Cosmos 1238 Rocket 3.5 03:18:22 10° N 03:24:22 76° W 03:29:25 10° S
Delta 142 4.2 03:24:12 66° W 03:24:55 74° NNW 03:30:10 10° NE
deb Chang Zheng 4 4.5 03:26:18 10° N 03:28:52 36° N 03:28:52 36° N
IRIDIUM 114 4.4 03:27:33 10° N 03:32:45 79° E 03:37:58 10° S
Meteor 1-27 Rocket 3.7 03:29:38 10° SSW 03:35:27 67° W 03:41:20 10° N
CZ-4B R/B 4.4 03:31:22 10° NNE 03:35:47 68° E 03:40:14 10° S
Cosmos 1814 Rocket 3.8 03:34:40 14° SSW 03:39:11 90° WNW 03:44:21 10° NNE
ADEOS 3.5 03:34:11 10° N 03:39:18 60° WNW 03:41:59 28° SSW
Milstar 3 Cent rocket 4.5 03:34:17 33° W 03:41:06 62° SSW 04:05:45 10° SE
IRIDIUM 103 4.2 03:36:40 10° N 03:41:52 81° W 03:47:05 10° S
Cosmos 841 Rocket 3.5 03:43:08 37° SW 03:44:52 55° WNW 03:49:56 10° N
Cosmos 1605 Rocket 3.9 03:38:32 10° N 03:44:54 74° W 03:51:14 10° S
Cosmos 1862 Rocket 3.5 03:47:26 10° S 03:51:54 89° W 03:56:18 10° N
Ariane H10+ 3.2 03:50:21 34° SW 03:51:56 46° S 03:56:21 10° ESE
ISS -1.7 03:56:56 17° SSW 03:56:56 17° SSW 03:58:05 10° S
Meteor 2-20 4.5 03:49:11 10° S 03:55:22 86° E 04:01:30 10° N
Cosmos 1570 Rocket 4.3 03:53:41 26° SW 03:56:06 41° WNW 04:01:04 10° N
ALOS 2.4 03:54:02 10° N 03:58:32 50° WNW 04:03:02 10° SSW
Cosmos 2360 Rocket 2.5 03:56:31 20° SW 04:00:03 41° WNW 04:05:21 10° N
IRIDIUM 106 4.5 03:55:10 10° NNW 04:00:09 47° W 04:05:09 10° SSW
Cosmos 1437 Rocket 3.0 03:57:03 10° S 04:00:47 65° E 04:04:30 10° NNE
H-2A R/B 2.5 03:57:42 10° SSW 04:01:32 35° WSW 04:05:26 10° NW
Cosmos 1536 4.4 03:58:48 10° NNE 04:02:34 38° E 04:06:20 10° SSE
ERS-2 2.0 03:59:11 10° S 04:02:49 66° WSW 04:06:26 10° NNW
Cosmos 1869 Rocket 3.5 03:59:30 10° NNW 04:03:43 56° W 04:07:57 10° S
Hubble Space Telescope 0.7 04:03:06 30° WSW 04:05:02 76° NNW 04:09:09 10° NE
Ariane 44LP R/B 3.9 04:04:49 27° WSW 04:06:46 75° S 04:14:01 10° E
Cosmos 1484 Rocket 3.6 04:03:32 10° NNW 04:07:03 30° WNW 04:08:50 21° WSW
Delta 2 Rocket 2.7 04:10:45 26° WSW 04:12:26 67° NW 04:15:46 10° NE
Cosmos 2322 Rocket 4.1 04:16:50 11° WNW 04:16:50 11° WNW 04:17:16 10° NW
Meteor 1-31 Rocket 3.7 04:14:30 10° NNW 04:17:43 26° WNW 04:20:58 10° SW
Cosmos 2123 Rocket 3.9 04:13:13 10° S 04:19:23 77° W 04:25:36 10° N
SJ 16-02 1.5 04:15:04 10° N 04:19:26 76° ENE 04:23:50 10° SSE
Cosmos 2100 Rocket 4.3 04:13:12 10° N 04:19:32 76° E 04:25:51 10° S
OAO 3 Rocket 3.9 04:21:08 16° W 04:24:39 38° NW 04:29:15 10° NNE
Maqsat-H 2.0 04:21:51 14° WSW 04:25:09 51° S 04:28:54 10° E
Ariane H10 3.9 04:17:22 14° W 04:27:44 85° S 04:31:05 10° E
Meteor PRIRODA 4.0 04:26:29 10° N 04:29:53 40° WNW 04:33:18 10° SSW
Cosmos 1515 3.6 04:26:10 10° S 04:29:59 80° W 04:33:46 10° N
BLOCK DM-SL 3.9 04:23:54 13° W 04:30:03 83° S 04:37:18 10° E
CZ-4B R/B 1.9 04:34:21 10° SSW 04:37:05 31° W 04:39:50 10° NW
GPS 2-17 Rocket1 4.4 04:33:52 10° WSW 04:37:40 25° SSW 04:41:24 10° SSE
PSLV R/B 3.7 04:34:27 10° N 04:38:18 79° W 04:42:15 10° SSW
Cosmos 990 Rocket 4.2 04:34:17 10° N 04:39:29 78° ENE 04:44:43 10° SSE
GPS 2-12 Rocket1 3.9 04:35:30 10° SW 04:39:42 41° SSE 04:43:52 10° E
Cosmos 1459 Rocket 3.9 04:35:04 10° N 04:41:04 73° W 04:47:06 10° S
Cosmos 2263 Rocket 2.3 04:35:27 10° NNW 04:41:07 88° W 04:46:49 10° SSE
SWIFT 3.9 04:41:02 10° SW 04:44:49 30° SSE 04:48:36 10° E
Ariane H10-3 4.0 04:39:34 10° WSW 04:45:21 24° SSW 04:47:44 10° SE
Star 48 S/N 10040-3 4.4 04:42:48 10° WSW 04:45:45 44° NNW 04:47:51 10° NE
ADEOS Rocket 3.9 04:41:18 10° S 04:48:17 40° WSW 04:54:49 10° NW
Ariane 44LP R/B 3.3 04:48:55 10° W 05:02:26 82° S 05:05:27 10° E
